Find STARLINK-37635

NORAD ID: 70617 Constellation: starlink operational
LEOCIRCULARRETROGRADE

实时位置

正在加载3D地球...

关于 STARLINK-37635

正在加载描述...

即将过境

Passes for default location (London). Set your location on the main map for personalized predictions.

高度历史

Loading altitude history...

两行轨道根数

1 70617C 26101E 26126.32618056 .00341050 00000+0 53660-3 0 1266
2 70617 97.2849 339.8681 0009867 259.8367 70.2739 16.03648404 15
Epoch: May 6, 2026 • Age: 20 hours